Amritsar, India

3:43 PM IST on December 17, 2017 (GMT +0530)
Amritsar

Weather History for VIAR - November, 2012

Change the Weather History Date:

Thursday, November 8, 2012

  Actual Average Record
Temperature  
Mean Temperature 66 °F -  
Max Temperature 85 °F 80 °F 87 °F (2007)
Min Temperature 47 °F 54 °F 47 °F (2012)
Cooling Degree Days 1    
Growing Degree Days 16 (Base 50)    
Moisture  
Dew Point 55 °F    
Average Humidity 68    
Maximum Humidity 100    
Minimum Humidity 27    
Precipitation  
Precipitation 0.00 in - - ()
Sea Level Pressure  
Sea Level Pressure 29.85 in    
Wind  
Wind Speed 1 mph ()    
Max Wind Speed 9 mph    
Max Gust Speed -    
Visibility 1.6 miles    
Events      
Averages and records for this station are not official NWS values.
T = Trace of Precipitation, MM = Missing Value Source: Averaged Metar Reports

Daily Weather History Graph

Daily Weather History Graph

Search for Another Location

Airport or City:

Trip Planner

Search our weather history database for the weather conditions in past years. The results will help you decide how hot, cold, wet, or windy it might be!

Date:

Astronomy

Nov. 08, 2012 Rise Set
Actual Time 6:52 AM IST 5:35 PM IST
Civil Twilight 6:27 AM IST 6:01 PM IST
Nautical Twilight 5:57 AM IST 6:30 PM IST
Astronomical Twilight 5:29 AM IST 6:58 PM IST
Moon 12:42 AM IST (11/8) 1:41 PM IST (11/8)
Length of Visible Light 11h 34m
Length of Day
10h 43m
Last Quarter, 37% of the Moon is Illuminated
Nov 8
Last Quarter
Nov 14
New
Nov 20
First Quarter
Nov 28
Full
Dec 6
Last Quarter

Hourly Weather History & Observations

Time (IST) Temp. Heat Index Dew Point Humidity Pressure Visibility Wind Dir Wind Speed Gust Speed Precip Events Conditions
1:30 AM 57.2 °F - 55.4 °F 94% 29.86 in 1.9 mi Calm Calm - N/A   Mist
2:00 AM 57.2 °F - 55.4 °F 94% 29.86 in 1.9 mi Calm Calm - N/A   Mist
2:30 AM 55 °F - 53 °F 92% 29.86 in 1 mi Calm Calm - -   Mist
3:00 AM 53.6 °F - 51.8 °F 94% 29.83 in 0.9 mi Calm Calm - N/A   Mist
3:30 AM 53.6 °F - 51.8 °F 94% 29.83 in 0.9 mi Calm Calm - N/A   Mist
4:30 AM 53.6 °F - 51.8 °F 94% 29.83 in 0.9 mi Calm Calm - N/A   Mist
5:30 AM - - 51 °F % 29.84 in 1 mi North 9.2 mph - -   Mist
6:00 AM 50.0 °F - 50.0 °F 100% 29.83 in 0.6 mi Calm Calm - N/A   Mist
8:30 AM 54 °F - 52 °F 92% 29.88 in 1 mi Calm Calm - -   Mist
9:00 AM 59.0 °F - 55.4 °F 88% 29.89 in 0.6 mi Calm Calm - N/A   Mist
11:00 AM 75.2 °F - 55.4 °F 50% 29.89 in 1.9 mi WNW 4.6 mph - N/A   Haze
11:30 AM 77 °F - 56 °F 37% 29.87 in 2 mi West 5.8 mph - -   Smoke
11:30 AM 77.0 °F - 55.4 °F 47% 29.89 in 2.5 mi West 5.8 mph - N/A   Smoke
2:30 PM 81 °F - 53 °F 27% 29.80 in 2 mi WNW 5.8 mph - -   Smoke
3:30 PM 82.4 °F 81.4 °F 53.6 °F 37% 29.83 in 2.5 mi WNW 5.8 mph - N/A   Smoke
4:00 PM 82.4 °F 81.4 °F 53.6 °F 37% 29.83 in 2.5 mi Variable 3.5 mph - N/A   Smoke
4:30 PM 82.4 °F 81.4 °F 53.6 °F 37% 29.83 in 2.5 mi Variable 2.3 mph - N/A   Smoke
5:30 PM 78 °F - 58 °F 39% 29.81 in 1 mi Calm Calm - -   Smoke
6:00 PM 77.0 °F - 57.2 °F 50% 29.83 in 1.9 mi Calm Calm - N/A   Smoke
6:30 PM 77.0 °F - 57.2 °F 50% 29.83 in 1.9 mi Calm Calm - N/A   Haze
7:00 PM 73.4 °F - 59.0 °F 61% 29.86 in 1.9 mi Calm Calm - N/A   Haze
8:30 PM 69.8 °F - 62.6 °F 78% 29.86 in 1.9 mi Calm Calm - N/A   Mist
9:30 PM 66.2 °F - 60.8 °F 83% 29.89 in 1.6 mi Calm Calm - N/A   Mist
11:30 PM 60.8 °F - 57.2 °F 88% 29.89 in 1.2 mi Calm Calm - N/A   Mist